Location: A�t �Alizem
(31.2076°N, 8.7872°W)
Time: 05:58:56
(UTC+00:00)

Cosmos 1782 - Pass Details

Date: 27 November 2020
Orbit: 538 x 550 km, 82.5° (Epoch: 16 January)

Event Time Altitude Azimuth Distance (km) Brightness Sun altitude
Rises 18:15:49 0° 170° (S) 2,675 6.5 -9.4°
Reaches altitude 10° 18:18:02 10° 163° (SSE) 1,789 5.5 -9.8°
Maximum altitude 18:21:44 41° 93° (E) 794 3.2 -10.6°
Drops below altitude 10° 18:25:28 10° 22° (NNE) 1,806 5.1 -11.3°
Enters shadow 18:27:08 - 17° (NNE) 2,468 5.8 -11.7°
